Flag for Canada Weather past 2 weeks in Iqaluit, Nunavut, Canada

34 °F

Light rain. Mostly cloudy.

Feels Like: 21 °F
Forecast: 26 / 43 °F
Wind: 24 mph from Northwest

Location: Iqaluit

Current Time: Oct 4, 2015 at 7:15:46 AM

Latest Report: Oct 4, 2015 at 6:00 AM

Visibility: 15 mi

Pressure: 29.87 "Hg

Humidity: 87%

Dew point: 30 °F

Location of IqaluitLocation

Historic Weather in Iqaluit — Graph


Iqaluit temperature yesterday

Maximum temperature yesterday: 46 °F (at 10:00 PM)
Minimum temperature yesterday: 32 °F (at 12:00 AM)
Average temperature yesterday: 35 °F

Past Weeks' High & Low Weather Summary

High46 °F (Oct 3, 10:00 PM)100% (Sep 20, 9:00 PM)30.49 "Hg (Sep 20, 9:00 PM)
Low25 °F (Sep 19, 6:00 AM)51% (Sep 26, 4:00 PM)29.23 "Hg (Sep 23, 1:00 PM)
Average34 °F80%29.84 "Hg
* Reported Sep 19 6:00 AM — Oct 4 6:00 AM, Iqaluit, Weather by CustomWeather, © 2015

Note: Actual official high and low records may vary slightly from our data, if they occured in-between our weather recording intervals... More about our weather records


Iqaluit weather history for previous 24 hours

Time TempWeatherWind HumidityBarometerVisibility
6:00 AM
Sun, Oct 4
34 °FLight rain. Mostly cloudy.24 mph87%29.87 "Hg15 mi
5:00 AM39 °FLight rain. Overcast.20 mph81%29.84 "Hg15 mi
4:00 AM41 °FLight rain. Mostly cloudy.21 mph81%29.83 "Hg15 mi
3:00 AM43 °FMostly cloudy.28 mph71%29.83 "Hg15 mi
2:00 AM43 °FLight rain. Overcast.12 mph76%29.88 "Hg15 mi
1:00 AM45 °FLight rain. Overcast.7 mph71%29.90 "Hg15 mi
12:00 AM45 °FLight rain. Mostly cloudy.3 mph76%29.95 "Hg15 mi
11:00 PM
Sat, Oct 3
46 °FPartly cloudy.3 mph71%29.96 "Hg15 mi
10:00 PM46 °FPassing clouds.9 mph76%30.00 "Hg15 mi
9:00 PM41 °FPassing clouds.No wind81%30.04 "Hg15 mi
8:00 PM39 °FPassing clouds.6 mph87%30.07 "Hg15 mi
7:00 PM37 °FPassing clouds.7 mph87%30.11 "Hg15 mi
6:00 PM37 °FPartly sunny.10 mph87%30.15 "Hg30 mi
5:00 PM36 °FPartly sunny.13 mph87%30.17 "Hg30 mi
4:00 PM34 °FBroken clouds.13 mph87%30.21 "Hg30 mi
3:00 PM34 °FOvercast.14 mph87%30.24 "Hg25 mi
2:00 PM32 °FOvercast.10 mph93%30.27 "Hg30 mi
1:45 PM32 °FOvercast.9 mph93%30.28 "Hg25 mi
1:00 PM32 °FLight freezing rain. Ice fog.8 mph93%30.29 "Hg6 mi
12:00 PM32 °FLight rain. Overcast.8 mph93%30.32 "Hg4 mi
11:00 AM34 °FOvercast.8 mph81%30.34 "Hg25 mi
10:00 AM32 °FOvercast.5 mph87%30.36 "Hg25 mi
9:00 AM32 °FOvercast.3 mph93%30.39 "Hg30 mi
8:00 AM32 °FPartly sunny.No wind93%30.40 "Hg25 mi
7:00 AM32 °FPassing clouds.No wind87%30.40 "Hg20 mi
Weather by CustomWeather, © 2015

See weather overviewHow to use our weather pages